[[{"header":{"parameterUnit":"m.s-1","parameterCategory":2,"la1":30.2991,"la2":30.254,"lo1":-89.0895,"lo2":-89.0444,"dy":0.0017,"dx":0.0017,"nx":28,"ny":28,"refTime":"2024-06-13T03:00:00:Z","depth":"0","parameterNumber":2,"parameterNumberName":"U-component_of_CURRENTS"},"data":[0,0,0,0,0,0,0,0,0,0,0,0,0,0,0,0,0,0,0,0,0,0,0,0,0,0,0,0,0,0,0,0,0,0,0,0,0,0,0,0,0,0,0,0,0,0,0,0,0,0,0,0,0,0,0,0,0,0,0.1496,0.1498,0,0.1678,0.168,0.1683,0.168,0.1677,0.1674,0.1671,0.1827,0.1834,0.184,0,0,0,0,0,0,0,0,0,0,0,0,0,0.1277,0.128,0.1496,0.1498,0.15,0.1678,0.1681,0.1683,0.168,0.1677,0.1673,0.167,0.1825,0.1833,0.1841,0,0,0,0,0,0,0,0,0,0,0,0,0,0.141,0.1282,0.1496,0.1517,0.152,0.1677,0.1681,0.1684,0.1681,0.1677,0.1672,0.1668,0.1822,0.1832,0.1842,0.199,0,0,0.1873,0.1877,0,0,0,0,0,0,0,0,0.1403,0.1419,0.1512,0.1515,0.1519,0.1648,0.166,0.1784,0.1682,0.1624,0.1671,0.1666,0.1765,0.178,0.183,0.1997,0.2004,0.1874,0.188,0.1885,0.1887,0,0,0,0,0,0,0,0.1393,0.1412,0.1573,0.1514,0.1519,0.1561,0.1575,0.1685,0.1719,0.1629,0.1628,0.1643,0.1767,0.182,0.1833,0.2006,0.1874,0.1883,0.1889,0.1893,0.2265,0.2269,0,0,0,0,0,0,0.1361,0.1403,0.1567,0.1578,0.1445,0.1568,0.1583,0.1615,0.1719,0.1729,0.1646,0.1642,0.1805,0.1821,0.1839,0.199,0.1884,0.1894,0.19,0.2261,0.2266,0.227,0,0,0,0,0,0,0.1356,0.1375,0.1559,0.1489,0.1515,0.1575,0.1611,0.162,0.1672,0.1731,0.1741,0.1686,0.1802,0.1824,0.196,0.1996,0.1899,0.1908,0.2257,0.2263,0.2268,0.2312,0,0,0,0,0,0,0.135,0.1373,0.1399,0.1488,0.1518,0.1672,0.1615,0.1627,0.1685,0.1681,0.177,0.1779,0.18,0.1945,0.197,0.2008,0.1916,0.2252,0.226,0.2266,0.2306,0.2318,0.2329,0,0,0,0,0,0.1342,0.1404,0.14,0.142,0.1548,0.1675,0.1697,0.1726,0.1691,0.1749,0.1803,0.1776,0.2005,0.1959,0.1987,0.2028,0.2249,0.2257,0.2266,0.23,0.2316,0.2329,0,0,0,0,0,0,0.135,0.1412,0.1409,0.1492,0.1578,0.1672,0.1729,0.1745,0.1838,0.1825,0.1859,0.1878,0.2006,0.2033,0.198,0.2158,0.2112,0.2126,0.2128,0.2143,0.2155,0.2115,0.1924,0,0,0,0,0,0.1357,0.1402,0.1483,0.1556,0.1593,0.1663,0.1717,0.1742,0.1825,0.1859,0.1921,0.1986,0.2073,0.2115,0.2207,0.2329,0.2354,0.2366,0.2378,0.2387,0.2377,0.2476,0.2494,0.2298,0.2298,0.2298,0,0,0.1377,0.1421,0.1446,0.1557,0.1618,0.1699,0.1687,0.1784,0.1845,0.1868,0.1986,0.2053,0.2122,0.2246,0.2301,0.2263,0.2463,0.2398,0.2405,0.2389,0.2487,0.2505,0.2522,0.2304,0.2303,0.2302,0,0,0.1447,0.1484,0.1539,0.1609,0.1701,0.175,0.1777,0.1885,0.1923,0.2065,0.2074,0.2166,0.2318,0.2358,0.2396,0.254,0.2536,0.2563,0.2577,0.2675,0.269,0.2704,0.2775,0.2794,0.255,0.255,0.255,0,0.1464,0.1547,0.1587,0.1664,0.1719,0.1767,0.185,0.1919,0.2058,0.2101,0.2103,0.2309,0.2365,0.2476,0.2509,0.2561,0.2608,0.2509,0.2686,0.27,0.2714,0.2782,0.2803,0.2553,0.2553,0.2553,0.2553,0,0.1564,0.1637,0.1688,0.1773,0.1847,0.1941,0.2013,0.2092,0.2136,0.2193,0.2335,0.243,0.2528,0.2565,0.2582,0.2699,0.2701,0.27,0.2635,0.2735,0.2802,0.2824,0.2558,0.2557,0.2556,0.2555,0,0,0.1584,0.1723,0.1739,0.1788,0.1908,0.1978,0.2078,0.2189,0.2227,0.2359,0.2435,0.2584,0.2605,0.265,0.2683,0.2752,0.2893,0.2757,0.2761,0.28,0.3102,0.3018,0.3033,0.2925,0.2929,0.2932,0.3114,0,0.165,0.179,0.1844,0.1972,0.205,0.2108,0.2187,0.2277,0.2353,0.2441,0.2523,0.2621,0.2643,0.2682,0.2766,0.2867,0.295,0.2843,0.3022,0.3027,0.2918,0.3055,0.2983,0.3132,0.3134,0.3138,0.314,0,0.1724,0.1806,0.1938,0.2051,0.2084,0.2148,0.2247,0.2331,0.2438,0.2494,0.2592,0.2651,0.2779,0.2772,0.2996,0.293,0.3021,0.3089,0.3098,0.3009,0.2982,0.3035,0.317,0.3148,0.3173,0.317,0.3168,0,0.1715,0.1869,0.1965,0.2011,0.2143,0.2186,0.2245,0.2344,0.2398,0.2517,0.2555,0.272,0.2788,0.2951,0.3085,0.3064,0.3309,0.3301,0.3314,0.3309,0.3274,0.3258,0.338,0.3465,0.3464,0.3464,0.3463,0,0.1773,0.1846,0.1956,0.201,0.2081,0.2172,0.2241,0.2311,0.2402,0.2454,0.2566,0.2628,0.2837,0.2983,0.312,0.3281,0.3356,0.3341,0.3363,0.3289,0.3273,0.3267,0.3198,0.3471,0.3469,0.3468,0.3467,0,0.1764,0.1851,0.1947,0.2061,0.2087,0.213,0.2216,0.2258,0.2342,0.2412,0.2447,0.2599,0.2781,0.2968,0.3223,0.33,0.3394,0.3504,0.338,0.3382,0.3333,0.3267,0.3218,0.3128,0.3565,0.3564,0.3564,0,0.1774,0.1829,0.1942,0.1969,0.2017,0.2084,0.2119,0.2221,0.2258,0.2385,0.2406,0.2578,0.2692,0.3013,0.32,0.3435,0.3357,0.3471,0.3407,0.3336,0.3283,0.312,0.3036,0.3406,0.3404,0.3402,0.3401,0,0.1765,0.1799,0.1865,0.1927,0.1967,0.2016,0.2071,0.2088,0.2197,0.2255,0.2348,0.245,0.2712,0.2917,0.3176,0.3307,0.3299,0.344,0.3437,0.3217,0.2982,0.2903,0.3258,0.3387,0.3388,0.3389,0.339,0.3391,0.1714,0.1749,0.1821,0.1875,0.1911,0.1935,0.1957,0.2008,0.2063,0.2143,0.2264,0.241,0.2697,0.3041,0.3138,0.3264,0.3177,0.3287,0.3234,0.3094,0.2922,0.3207,0.3298,0.3299,0.3299,0.33,0.3301,0,0.1655,0.1712,0.1759,0.1824,0.1839,0.1882,0.1912,0.1924,0.196,0.2081,0.2178,0.2472,0.2688,0.2915,0.315,0.3133,0.3004,0.3085,0.2897,0.2842,0.3212,0.3122,0.3092,0.3092,0.3092,0.3092,0.3092,0.3092,0.1624,0.1673,0.1723,0.1744,0.1772,0.1782,0.1789,0.1806,0.1878,0.201,0.2171,0.2325,0.2653,0.2956,0.3059,0.3011,0.2829,0.2701,0.2663,0.3003,0.302,0.3036,0.2943,0.2875,0.2875,0.2243,0.2238,0.2234]},{"header":{"parameterUnit":"m.s-1","parameterCategory":2,"la1":30.2991,"la2":30.254,"lo1":-89.0895,"lo2":-89.0444,"dy":0.0017,"dx":0.0017,"nx":28,"ny":28,"refTime":"2024-06-13T03:00:00:Z","depth":"0","parameterNumber":3,"parameterNumberName":"V-component_of_CURRENTS"},"data":[0,0,0,0,0,0,0,0,0,0,0,0,0,0,0,0,0,0,0,0,0,0,0,0,0,0,0,0,0,0,0,0,0,0,0,0,0,0,0,0,0,0,0,0,0,0,0,0,0,0,0,0,0,0,0,0,0,0,-0.0233,-0.0233,0,-0.0151,-0.0149,-0.0148,-0.0152,-0.0153,-0.0155,-0.0157,-0.0053,-0.0049,-0.0045,0,0,0,0,0,0,0,0,0,0,0,0,0,-0.0217,-0.0218,-0.0233,-0.0233,-0.0232,-0.0151,-0.0149,-0.0147,-0.0151,-0.0154,-0.0156,-0.0158,-0.0055,-0.0049,-0.0044,0,0,0,0,0,0,0,0,0,0,0,0,0,-0.0182,-0.0218,-0.0233,-0.0229,-0.0229,-0.0151,-0.0149,-0.0147,-0.0151,-0.0154,-0.0156,-0.0159,-0.0056,-0.005,-0.0043,0.0051,0,0,-0.0023,-0.002,0,0,0,0,0,0,0,0,-0.0184,-0.0182,-0.023,-0.023,-0.0229,-0.017,-0.0106,-0.0082,-0.015,-0.0173,-0.0157,-0.016,-0.0093,-0.0083,-0.0053,0.0056,0.006,-0.0023,-0.0019,-0.0016,-0.0014,0,0,0,0,0,0,0,-0.0187,-0.0185,-0.0194,-0.023,-0.0229,-0.0171,-0.017,-0.01,-0.0113,-0.0172,-0.0173,-0.0174,-0.0092,-0.0059,-0.005,0.0062,-0.0023,-0.0017,-0.0013,-0.001,0.0191,0.0192,0,0,0,0,0,0,-0.0217,-0.0188,-0.0197,-0.0192,-0.022,-0.0171,-0.0169,-0.0181,-0.0115,-0.0109,-0.0172,-0.0174,-0.0069,-0.0058,-0.0047,0.0052,-0.0016,-0.001,-0.0006,0.019,0.0191,0.0193,0,0,0,0,0,0,-0.0217,-0.0219,-0.02,-0.0192,-0.0187,-0.017,-0.0182,-0.0178,-0.0149,-0.0116,-0.011,-0.0149,-0.0071,-0.0056,0.0024,0.0056,-0.0007,-0.0,0.0188,0.019,0.0192,0.0261,0,0,0,0,0,0,-0.0217,-0.0219,-0.0212,-0.0195,-0.0189,-0.0135,-0.018,-0.0175,-0.0149,-0.0151,-0.0094,-0.0087,-0.0072,0.0014,0.0031,0.0064,0.0005,0.0186,0.0189,0.0192,0.0257,0.0265,0.0272,0,0,0,0,0,-0.0217,-0.0188,-0.0213,-0.0213,-0.0189,-0.0133,-0.0121,-0.0114,-0.0145,-0.0103,-0.008,-0.0089,0.004,0.0023,0.0041,0.0077,0.0185,0.0188,0.0191,0.0253,0.0263,0.0272,0,0,0,0,0,0,-0.0156,-0.0186,-0.0213,-0.0191,-0.0165,-0.0137,-0.0094,-0.0104,-0.005,-0.0058,-0.0043,-0.003,0.0042,0.0056,0.0036,0.0137,0.0101,0.0108,0.0142,0.0152,0.0159,0.018,0.001,0,0,0,0,0,-0.015,-0.0146,-0.0155,-0.0129,-0.0121,-0.011,-0.0084,-0.0085,-0.0051,-0.0031,0.0002,0.0032,0.0075,0.0108,0.0153,0.0237,0.0236,0.026,0.0267,0.0274,0.0302,0.0311,0.0322,0.0203,0.0203,0.0203,0,0,-0.0116,-0.0132,-0.0127,-0.0117,-0.0099,-0.0053,-0.0097,-0.0053,-0.0012,-0.0024,0.006,0.0072,0.0102,0.0179,0.0211,0.0195,0.0308,0.0278,0.0283,0.0309,0.0316,0.0327,0.0338,0.0205,0.0205,0.0204,0,0,-0.003,-0.0067,-0.0029,-0.0012,0.0003,0.0007,0.0016,0.0043,0.0058,0.0136,0.0118,0.0157,0.0239,0.0263,0.0283,0.0367,0.0345,0.0361,0.0431,0.0439,0.0449,0.0458,0.0476,0.0485,0.0368,0.0368,0.0368,0,0.0015,0.0036,0.0004,0.0049,0.0063,0.0031,0.0086,0.0116,0.0169,0.0193,0.0169,0.0266,0.0283,0.0366,0.0381,0.0387,0.0385,0.0394,0.045,0.0458,0.0466,0.0482,0.0492,0.0371,0.0371,0.0371,0.037,0,0.0125,0.0141,0.0173,0.0191,0.0217,0.0259,0.0261,0.0298,0.029,0.031,0.0383,0.0406,0.0458,0.0456,0.0452,0.0516,0.0494,0.0454,0.0427,0.0483,0.0495,0.0504,0.0377,0.0375,0.0374,0.0373,0,0,0.0213,0.024,0.0246,0.0264,0.0279,0.0311,0.0372,0.0418,0.0462,0.0495,0.0566,0.0612,0.0598,0.062,0.0605,0.0613,0.0657,0.0563,0.0561,0.0583,0.0684,0.0631,0.0636,0.0617,0.0619,0.062,0.0671,0,0.0305,0.0388,0.0376,0.0458,0.0495,0.047,0.0531,0.0565,0.0588,0.0657,0.0658,0.0723,0.0667,0.0689,0.0693,0.0682,0.0685,0.0649,0.0627,0.0627,0.0574,0.0646,0.0553,0.0587,0.068,0.0682,0.0683,0,0.0413,0.044,0.0524,0.0557,0.0571,0.0615,0.0665,0.072,0.0786,0.0808,0.0855,0.0857,0.0912,0.0828,0.0846,0.0823,0.0765,0.0732,0.0732,0.0671,0.0592,0.0546,0.06,0.0406,0.0696,0.0695,0.0694,0,0.0477,0.0543,0.0597,0.0611,0.0654,0.0683,0.0709,0.0768,0.0822,0.0908,0.0958,0.1004,0.1043,0.0995,0.0937,0.0893,0.0935,0.0859,0.0757,0.0753,0.0668,0.0652,0.0535,0.0846,0.0846,0.0846,0.0846,0,0.0567,0.0613,0.0626,0.0655,0.072,0.0735,0.0821,0.0855,0.0934,0.1026,0.1038,0.1125,0.1081,0.1094,0.1004,0.0939,0.0988,0.0802,0.0772,0.0688,0.0675,0.0495,0.0405,0.0848,0.0847,0.0847,0.0847,0,0.0638,0.0652,0.0708,0.0739,0.0752,0.0798,0.0865,0.0937,0.1001,0.1123,0.1156,0.1239,0.1269,0.1206,0.1157,0.1035,0.0851,0.0906,0.0821,0.0779,0.0478,0.0398,0.0321,0.0245,0.0816,0.0815,0.0814,0,0.0681,0.0716,0.0749,0.0773,0.0784,0.0847,0.0899,0.0964,0.1044,0.12,0.1271,0.1344,0.1414,0.1342,0.1145,0.0999,0.0836,0.0789,0.0677,0.0479,0.0367,0.0323,0.0262,0.0596,0.0593,0.0591,0.059,0,0.0733,0.0738,0.0764,0.0815,0.0861,0.0936,0.1012,0.1082,0.119,0.1297,0.1454,0.1526,0.1454,0.1307,0.1088,0.0943,0.063,0.0741,0.0555,0.0217,0.0146,0.0051,0.0552,0.0572,0.0573,0.0575,0.0576,0.0576,0.0739,0.0769,0.0793,0.0851,0.0914,0.1017,0.1095,0.1196,0.1332,0.1509,0.1572,0.1699,0.1432,0.1133,0.0917,0.0421,0.0488,0.0244,0.0178,0.0165,0.004,0.0513,0.0476,0.0478,0.0479,0.048,0.048,0,0.073,0.0773,0.0826,0.0903,0.0993,0.1027,0.1168,0.1263,0.143,0.1596,0.1729,0.1662,0.1281,0.0908,0.0266,-0.0084,-0.0201,-0.0262,-0.0374,-0.0398,0.0025,-0.0042,-0.0218,-0.0218,-0.0218,-0.0218,-0.0217,-0.0217,0.0723,0.077,0.0816,0.0952,0.1024,0.116,0.125,0.1393,0.1529,0.173,0.1821,0.1886,0.155,0.0406,-0.0408,-0.0591,-0.08,-0.0858,-0.09,-0.0678,-0.0637,-0.0598,-0.0685,-0.0993,-0.0994,-0.133,-0.1334,-0.1337]}],[{"header":{"parameterUnit":"m.s-1","parameterCategory":2,"la1":30.2991,"la2":30.254,"lo1":-89.0895,"lo2":-89.0444,"dy":0.0017,"dx":0.0017,"nx":28,"ny":28,"refTime":"2024-06-13T03:00:00:Z","depth":"2","parameterNumber":2,"parameterNumberName":"U-component_of_CURRENTS"},"data":[0,0,0,0,0,0,0,0,0,0,0,0,0,0,0,0,0,0,0,0,0,0,0,0,0,0,0,0,0,0,0,0,0,0,0,0,0,0,0,0,0,0,0,0,0,0,0,0,0,0,0,0,0,0,0,0,0,0,0.1302,0.1302,0,0.1229,0.1226,0.1224,0.1155,0.1156,0.1157,0.1158,0.1084,0.1081,0.1078,0,0,0,0,0,0,0,0,0,0,0,0,0,0.117,0.1173,0.1302,0.1302,0.1303,0.1229,0.1226,0.1224,0.1155,0.1156,0.1157,0.1158,0.1085,0.1081,0.1078,0,0,0,0,0,0,0,0,0,0,0,0,0,0.1159,0.1174,0.1302,0.1273,0.1271,0.123,0.1226,0.1223,0.1155,0.1156,0.1157,0.1158,0.1086,0.1082,0.1078,0.103,0,0,0.1066,0.1064,0,0,0,0,0,0,0,0,0.116,0.1162,0.1277,0.1275,0.1273,0.1218,0.1154,0.1165,0.1155,0.118,0.1158,0.1159,0.1139,0.1131,0.1089,0.1027,0.1024,0.1065,0.1063,0.1061,0.106,0,0,0,0,0,0,0,0.1161,0.1164,0.1255,0.1278,0.1276,0.1193,0.1192,0.1153,0.1141,0.1178,0.1178,0.1197,0.1136,0.1093,0.1088,0.1023,0.1065,0.1062,0.1059,0.1058,0.1022,0.1024,0,0,0,0,0,0,0.1216,0.1166,0.1258,0.1255,0.1238,0.1196,0.1195,0.122,0.1141,0.1135,0.1196,0.1195,0.11,0.1092,0.1085,0.1124,0.1061,0.1057,0.1055,0.1021,0.1023,0.1024,0,0,0,0,0,0,0.1213,0.1225,0.1261,0.1221,0.1223,0.1201,0.1227,0.1218,0.1208,0.1158,0.1149,0.1203,0.11,0.1091,0.1069,0.1117,0.1055,0.1052,0.1019,0.1021,0.1024,0.1138,0,0,0,0,0,0,0.121,0.1224,0.1246,0.1226,0.1228,0.1258,0.1228,0.1217,0.1226,0.1223,0.116,0.1152,0.11,0.1075,0.1065,0.111,0.1049,0.1017,0.102,0.1023,0.1132,0.1144,0.1154,0,0,0,0,0,0.1205,0.1246,0.1247,0.1258,0.1264,0.126,0.125,0.1225,0.1226,0.1218,0.118,0.1155,0.1087,0.1072,0.106,0.1106,0.1016,0.1019,0.1023,0.1128,0.1142,0.1154,0,0,0,0,0,0,0.121,0.1244,0.1244,0.1296,0.129,0.1256,0.1265,0.1247,0.1205,0.1216,0.1154,0.1142,0.1151,0.1106,0.1092,0.1105,0.1056,0.1057,0.114,0.1153,0.1163,0.1211,0.1045,0,0,0,0,0,0.1225,0.1257,0.1269,0.1309,0.1321,0.1295,0.1292,0.128,0.1255,0.1238,0.1196,0.1164,0.1147,0.1134,0.1103,0.1093,0.1097,0.1121,0.1132,0.1141,0.1173,0.1293,0.1319,0.1035,0.1035,0.1035,0,0,0.124,0.1265,0.1283,0.1311,0.1308,0.1295,0.1292,0.1313,0.1293,0.1239,0.1206,0.1201,0.1155,0.1151,0.1153,0.1123,0.1198,0.1145,0.1154,0.118,0.13,0.1328,0.1353,0.1037,0.1037,0.1037,0,0,0.1259,0.1314,0.1325,0.1322,0.1344,0.133,0.1351,0.1335,0.1327,0.1301,0.1279,0.1306,0.1237,0.1234,0.1219,0.127,0.1259,0.1271,0.1354,0.1471,0.1497,0.152,0.1455,0.1471,0.1268,0.1269,0.1269,0,0.1268,0.129,0.1325,0.132,0.1328,0.1353,0.1346,0.1332,0.1304,0.1325,0.1309,0.1313,0.1278,0.1314,0.1339,0.1298,0.132,0.1308,0.149,0.1514,0.1536,0.1465,0.1482,0.1275,0.1274,0.1273,0.1273,0,0.1256,0.1281,0.1301,0.1298,0.1305,0.1324,0.1329,0.1344,0.1359,0.1358,0.1421,0.14,0.1418,0.1419,0.139,0.153,0.1471,0.1501,0.1468,0.1573,0.1487,0.1503,0.1283,0.1281,0.1279,0.1278,0,0,0.1262,0.1283,0.129,0.1284,0.1305,0.1309,0.1327,0.1357,0.1397,0.1415,0.148,0.1495,0.1558,0.1551,0.1556,0.1656,0.1783,0.1665,0.1668,0.1614,0.1946,0.1834,0.1838,0.1891,0.1897,0.1902,0.1786,0,0.1238,0.1224,0.1247,0.124,0.1238,0.1284,0.1294,0.1334,0.1385,0.1453,0.1531,0.1598,0.1583,0.1647,0.1747,0.1785,0.1851,0.1804,0.1842,0.1838,0.1745,0.1865,0.1787,0.1679,0.1801,0.1804,0.1806,0,0.1197,0.1205,0.1192,0.1224,0.1234,0.1234,0.1312,0.1328,0.1447,0.151,0.1635,0.1707,0.1826,0.1846,0.196,0.1948,0.1975,0.1996,0.1994,0.188,0.1764,0.1615,0.1703,0.1832,0.183,0.1828,0.1826,0,0.1149,0.1166,0.1163,0.1163,0.1197,0.1227,0.1263,0.1357,0.1397,0.1595,0.1671,0.1824,0.1896,0.202,0.2038,0.2051,0.2154,0.2151,0.2043,0.2025,0.1959,0.1928,0.2297,0.2297,0.2297,0.2298,0.2298,0,0.1101,0.1099,0.1146,0.1136,0.1155,0.1206,0.1263,0.1335,0.1462,0.1533,0.1719,0.1799,0.1985,0.2047,0.2081,0.207,0.2172,0.2082,0.2047,0.1976,0.1951,0.2106,0.2086,0.2293,0.2294,0.2295,0.2296,0,0.1025,0.1057,0.1043,0.1096,0.1122,0.1133,0.1223,0.1275,0.1416,0.1526,0.1613,0.1792,0.1893,0.1974,0.211,0.207,0.2109,0.2086,0.1893,0.1843,0.1864,0.185,0.1949,0.1946,0.1943,0.194,0.1938,0,0.0975,0.0964,0.0994,0.1006,0.1032,0.1078,0.1121,0.1242,0.1303,0.1489,0.1535,0.17,0.1784,0.1852,0.1911,0.192,0.2007,0.1814,0.1861,0.1902,0.1857,0.1847,0.1838,0.1741,0.1737,0.1735,0.1732,0,0.0879,0.0892,0.0884,0.0916,0.0952,0.0988,0.1062,0.1092,0.125,0.1342,0.1462,0.1559,0.1665,0.1693,0.172,0.1719,0.1815,0.1749,0.1938,0.1849,0.1701,0.1657,0.1657,0.1706,0.1709,0.1711,0.1712,0.1713,0.0802,0.0772,0.0787,0.0818,0.0863,0.0915,0.0947,0.1026,0.1097,0.1244,0.1312,0.1425,0.1503,0.153,0.1509,0.1529,0.1627,0.1599,0.1612,0.1626,0.1632,0.1491,0.1444,0.1445,0.1446,0.1446,0.1447,0,0.0702,0.0705,0.0711,0.0742,0.0782,0.0856,0.0927,0.0958,0.1029,0.1142,0.1229,0.1175,0.1234,0.1333,0.1336,0.1325,0.135,0.1284,0.134,0.1366,0.139,0.1388,0.1131,0.113,0.1129,0.1128,0,0,0.0649,0.0614,0.0629,0.0672,0.0738,0.0805,0.0857,0.0888,0.0957,0.0972,0.1041,0.1171,0.1282,0.1172,0.1177,0.1171,0.1255,0.1133,0.1393,0.1486,0.1508,0.1584,0.1611,0,0,0,0,0]},{"header":{"parameterUnit":"m.s-1","parameterCategory":2,"la1":30.2991,"la2":30.254,"lo1":-89.0895,"lo2":-89.0444,"dy":0.0017,"dx":0.0017,"nx":28,"ny":28,"refTime":"2024-06-13T03:00:00:Z","depth":"2","parameterNumber":3,"parameterNumberName":"V-component_of_CURRENTS"},"data":[0,0,0,0,0,0,0,0,0,0,0,0,0,0,0,0,0,0,0,0,0,0,0,0,0,0,0,0,0,0,0,0,0,0,0,0,0,0,0,0,0,0,0,0,0,0,0,0,0,0,0,0,0,0,0,0,0,0,-0.0452,-0.0452,0,-0.0567,-0.0569,-0.0571,-0.0631,-0.063,-0.0629,-0.0629,-0.0654,-0.0655,-0.0657,0,0,0,0,0,0,0,0,0,0,0,0,0,-0.0372,-0.0373,-0.0451,-0.0452,-0.0453,-0.0567,-0.0569,-0.0572,-0.0631,-0.063,-0.0629,-0.0628,-0.0654,-0.0655,-0.0657,0,0,0,0,0,0,0,0,0,0,0,0,0,-0.0447,-0.0374,-0.0451,-0.0489,-0.0493,-0.0566,-0.0569,-0.0572,-0.0631,-0.063,-0.0629,-0.0628,-0.0653,-0.0655,-0.0657,-0.0694,0,0,-0.0664,-0.0665,0,0,0,0,0,0,0,0,-0.0443,-0.0451,-0.0483,-0.0487,-0.0491,-0.0575,-0.055,-0.0605,-0.0631,-0.0589,-0.0629,-0.0627,-0.0614,-0.0619,-0.0658,-0.0695,-0.0696,-0.0664,-0.0665,-0.0666,-0.0667,0,0,0,0,0,0,0,-0.0437,-0.0447,-0.0507,-0.0483,-0.0488,-0.053,-0.054,-0.0562,-0.0612,-0.0592,-0.0595,-0.0593,-0.0617,-0.0656,-0.0659,-0.0696,-0.0664,-0.0666,-0.0667,-0.0668,-0.0741,-0.0741,0,0,0,0,0,0,-0.0401,-0.0442,-0.0503,-0.0509,-0.0453,-0.0531,-0.0543,-0.0557,-0.0614,-0.0619,-0.0594,-0.0595,-0.0653,-0.0656,-0.066,-0.0673,-0.0666,-0.0668,-0.0669,-0.074,-0.0741,-0.0741,0,0,0,0,0,0,-0.04,-0.0406,-0.0498,-0.047,-0.0483,-0.0532,-0.0549,-0.056,-0.0589,-0.0614,-0.062,-0.0609,-0.0652,-0.0657,-0.0685,-0.0675,-0.0669,-0.0671,-0.0739,-0.074,-0.0741,-0.072,0,0,0,0,0,0,-0.0397,-0.0406,-0.0405,-0.0468,-0.0483,-0.0538,-0.0549,-0.0562,-0.0585,-0.0589,-0.0629,-0.0631,-0.0652,-0.0682,-0.0687,-0.0678,-0.0672,-0.0738,-0.074,-0.0741,-0.072,-0.072,-0.0721,0,0,0,0,0,-0.0394,-0.0389,-0.0405,-0.0411,-0.048,-0.0538,-0.0552,-0.0589,-0.0587,-0.061,-0.0637,-0.063,-0.0693,-0.0685,-0.0691,-0.0682,-0.0738,-0.0739,-0.0741,-0.072,-0.072,-0.0721,0,0,0,0,0,0,-0.0348,-0.0396,-0.0414,-0.0422,-0.0474,-0.0544,-0.055,-0.0583,-0.0629,-0.0622,-0.0648,-0.0654,-0.0678,-0.0687,-0.0677,-0.0708,-0.071,-0.0713,-0.0692,-0.0693,-0.0693,-0.0648,-0.0674,0,0,0,0,0,-0.0337,-0.0349,-0.0409,-0.0415,-0.0431,-0.0492,-0.0516,-0.0553,-0.0595,-0.0615,-0.0647,-0.067,-0.0694,-0.0697,-0.0731,-0.0745,-0.0745,-0.0741,-0.0741,-0.0741,-0.071,-0.0653,-0.0643,-0.0746,-0.0746,-0.0746,0,0,-0.0315,-0.0344,-0.0348,-0.0406,-0.0441,-0.0495,-0.0506,-0.0542,-0.0584,-0.0607,-0.0659,-0.068,-0.0703,-0.0731,-0.0739,-0.073,-0.0741,-0.0743,-0.0743,-0.0711,-0.0653,-0.0642,-0.0633,-0.0747,-0.0747,-0.0747,0,0,-0.03,-0.0306,-0.0327,-0.0376,-0.0429,-0.0474,-0.048,-0.0557,-0.0578,-0.0637,-0.0656,-0.0667,-0.0722,-0.0729,-0.0738,-0.0755,-0.0753,-0.0765,-0.0715,-0.066,-0.065,-0.064,-0.074,-0.0739,-0.0751,-0.0751,-0.0751,0,-0.0272,-0.0316,-0.0341,-0.039,-0.0417,-0.0464,-0.0507,-0.055,-0.0631,-0.0621,-0.0646,-0.0686,-0.0718,-0.0707,-0.0721,-0.0751,-0.0759,-0.071,-0.0655,-0.0645,-0.0635,-0.0739,-0.0738,-0.0751,-0.0751,-0.0751,-0.0751,0,-0.0308,-0.0337,-0.0345,-0.0425,-0.0461,-0.0498,-0.0556,-0.0586,-0.0608,-0.0633,-0.063,-0.0672,-0.0667,-0.0696,-0.0718,-0.0665,-0.0716,-0.0671,-0.0644,-0.0623,-0.0737,-0.0736,-0.0749,-0.075,-0.075,-0.075,0,0,-0.0256,-0.0352,-0.0356,-0.0386,-0.0479,-0.0506,-0.0552,-0.0583,-0.0556,-0.062,-0.0575,-0.0635,-0.0602,-0.0608,-0.0622,-0.0588,-0.0591,-0.059,-0.0587,-0.0674,-0.0566,-0.0556,-0.0557,-0.0504,-0.0501,-0.0499,-0.0714,0,-0.0276,-0.036,-0.0403,-0.0462,-0.05,-0.054,-0.0565,-0.059,-0.0586,-0.0556,-0.0551,-0.0514,-0.0581,-0.0538,-0.0525,-0.0566,-0.0568,-0.0544,-0.0585,-0.059,-0.0564,-0.0544,-0.0502,-0.0678,-0.0713,-0.0713,-0.0713,0,-0.0313,-0.0354,-0.0422,-0.0457,-0.0468,-0.0505,-0.0492,-0.0518,-0.0481,-0.0455,-0.0407,-0.0382,-0.038,-0.0387,-0.0462,-0.0435,-0.0487,-0.053,-0.0537,-0.051,-0.057,-0.0683,-0.0676,-0.0712,-0.0712,-0.0712,-0.0712,0,-0.0283,-0.0357,-0.0397,-0.0427,-0.0487,-0.0482,-0.0492,-0.0474,-0.044,-0.0343,-0.0277,-0.0274,-0.0245,-0.0292,-0.0411,-0.0406,-0.0489,-0.0495,-0.0563,-0.0572,-0.0533,-0.0538,-0.0483,-0.0482,-0.0482,-0.0481,-0.0481,0,-0.0303,-0.0326,-0.0376,-0.0403,-0.0388,-0.0434,-0.0382,-0.0371,-0.031,-0.0234,-0.019,-0.0129,-0.0186,-0.0241,-0.0371,-0.0497,-0.0467,-0.0551,-0.0578,-0.0542,-0.0545,-0.0537,-0.0541,-0.049,-0.0488,-0.0486,-0.0485,0,-0.0288,-0.0339,-0.0364,-0.0393,-0.0387,-0.0369,-0.0331,-0.0278,-0.0219,-0.0113,-0.0058,-0.0023,-0.0091,-0.0213,-0.0322,-0.0434,-0.0555,-0.0588,-0.0623,-0.0644,-0.0721,-0.0721,-0.072,-0.072,-0.072,-0.0721,-0.0721,0,-0.0301,-0.0321,-0.0335,-0.0318,-0.0326,-0.0296,-0.0264,-0.0231,-0.0165,-0.0065,-0.0005,0.001,0.0005,-0.0215,-0.036,-0.0583,-0.0575,-0.0657,-0.0593,-0.0694,-0.0722,-0.0723,-0.0723,-0.0629,-0.0628,-0.0628,-0.0627,0,-0.0293,-0.0294,-0.0302,-0.0269,-0.0237,-0.0197,-0.0145,-0.0089,-0.0029,0.0056,0.013,0.014,-0.0008,-0.0166,-0.0394,-0.0529,-0.0621,-0.0652,-0.0689,-0.0535,-0.061,-0.0638,-0.0641,-0.0623,-0.0623,-0.0624,-0.0624,-0.0624,-0.0259,-0.0248,-0.0245,-0.0207,-0.0164,-0.0097,-0.0043,0.0024,0.0114,0.0244,0.0193,0.0229,0.0039,-0.0212,-0.0416,-0.0576,-0.06,-0.0655,-0.0656,-0.0657,-0.0565,-0.0631,-0.0644,-0.0645,-0.0645,-0.0645,-0.0646,0,-0.0228,-0.0218,-0.0178,-0.0133,-0.0071,-0.0056,0.0039,0.0107,0.0218,0.0316,0.0358,0.0225,0.0037,-0.015,-0.0383,-0.0567,-0.0572,-0.0604,-0.0575,-0.0579,-0.0582,-0.0485,-0.0545,-0.0545,-0.0545,-0.0544,0,0,-0.0208,-0.0182,-0.0165,-0.0064,-0.0013,0.0079,0.0141,0.0249,0.0337,0.0449,0.0492,0.0396,0.0136,-0.0018,-0.0271,-0.0384,-0.0428,-0.0401,-0.0467,-0.0407,-0.0407,-0.0604,-0.0456,0,0,0,0,0]}],[{"header":{"parameterUnit":"m.s-1","parameterCategory":2,"la1":30.2991,"la2":30.254,"lo1":-89.0895,"lo2":-89.0444,"dy":0.0017,"dx":0.0017,"nx":28,"ny":28,"refTime":"2024-06-13T03:00:00:Z","depth":"4","parameterNumber":2,"parameterNumberName":"U-component_of_CURRENTS"},"data":[0,0,0,0,0,0,0,0,0,0,0,0,0,0,0,0,0,0,0,0,0,0,0,0,0,0,0,0,0,0,0,0,0,0,0,0,0,0,0,0,0,0,0,0,0,0,0,0,0,0,0,0,0,0,0,0,0,0,0.0252,0.0252,0,0.0222,0.0222,0.0221,0.0219,0.022,0.022,0.0221,0.0229,0.0229,0.0229,0,0,0,0,0,0,0,0,0,0,0,0,0,0.03,0.0299,0.0252,0.0252,0.0252,0.0222,0.0222,0.0221,0.0219,0.022,0.022,0.0221,0.0229,0.0229,0.0229,0,0,0,0,0,0,0,0,0,0,0,0,0,0.0275,0.0299,0.0253,0.0248,0.0247,0.0222,0.0222,0.0221,0.0219,0.022,0.022,0.0221,0.0229,0.0229,0.0229,0.0216,0,0,0.0228,0.0228,0,0,0,0,0,0,0,0,0.0276,0.0273,0.0249,0.0248,0.0247,0.0225,0.0241,0.0221,0.0219,0.0229,0.0221,0.0221,0.0231,0.0231,0.0223,0.0216,0.0216,0.0228,0.0228,0.0228,0.0228,0,0,0,0,0,0,0,0.0278,0.0274,0.024,0.0248,0.0247,0.0244,0.0241,0.0237,0.0228,0.0228,0.0228,0.0225,0.0231,0.0223,0.0223,0.0217,0.0228,0.0228,0.0228,0.0228,0.0233,0.0233,0,0,0,0,0,0,0.0282,0.0276,0.0241,0.0239,0.0264,0.0243,0.0239,0.0231,0.0227,0.0227,0.0225,0.0225,0.0223,0.0223,0.0223,0.0248,0.0228,0.0228,0.0227,0.0233,0.0233,0.0233,0,0,0,0,0,0,0.0283,0.0279,0.0242,0.0258,0.0253,0.0241,0.0232,0.0231,0.0236,0.0224,0.0224,0.0234,0.0223,0.0224,0.0229,0.0247,0.0227,0.0227,0.0232,0.0233,0.0233,0.0273,0,0,0,0,0,0,0.0285,0.028,0.0284,0.0258,0.0252,0.0235,0.0232,0.023,0.0232,0.0233,0.0231,0.0232,0.0224,0.0229,0.0228,0.0247,0.0227,0.0232,0.0232,0.0233,0.0271,0.0274,0.0277,0,0,0,0,0,0.0286,0.0282,0.0284,0.028,0.0255,0.0235,0.0232,0.0225,0.0233,0.0233,0.0233,0.0233,0.0232,0.0229,0.0228,0.0247,0.0232,0.0232,0.0233,0.027,0.0274,0.0277,0,0,0,0,0,0,0.0291,0.028,0.0282,0.0272,0.0261,0.0235,0.0237,0.0234,0.0233,0.0243,0.0233,0.0233,0.0243,0.0237,0.0234,0.0248,0.0233,0.0233,0.0261,0.0265,0.0268,0.0282,0.0227,0,0,0,0,0,0.0298,0.0299,0.0282,0.0274,0.0274,0.0261,0.0257,0.0253,0.0244,0.0245,0.0243,0.0244,0.0241,0.0248,0.024,0.0251,0.0247,0.0262,0.0265,0.0268,0.0278,0.0285,0.029,0.0235,0.0235,0.0235,0,0,0.0293,0.0291,0.0289,0.0278,0.0272,0.0266,0.026,0.0257,0.0256,0.0247,0.0254,0.0252,0.0244,0.0251,0.0257,0.0254,0.028,0.0269,0.0271,0.028,0.0286,0.0292,0.0297,0.0235,0.0235,0.0235,0,0,0.0284,0.029,0.029,0.0289,0.0288,0.028,0.0284,0.0272,0.0276,0.0278,0.0272,0.0282,0.0279,0.0278,0.0276,0.0292,0.0291,0.0295,0.0331,0.0337,0.0342,0.0347,0.0344,0.0348,0.0303,0.0303,0.0303,0,0.0279,0.0278,0.0284,0.0286,0.0287,0.0289,0.0286,0.0286,0.0277,0.0288,0.0288,0.0298,0.029,0.0304,0.0312,0.0301,0.0304,0.0319,0.0343,0.0347,0.0351,0.0347,0.0351,0.0305,0.0305,0.0305,0.0305,0,0.0271,0.0275,0.0276,0.0283,0.0285,0.0284,0.0287,0.0299,0.031,0.0312,0.0336,0.033,0.0345,0.0341,0.0333,0.0361,0.0354,0.0341,0.0337,0.0359,0.0353,0.0356,0.0308,0.0307,0.0307,0.0306,0,0,0.0232,0.0264,0.0262,0.0273,0.0288,0.0282,0.03,0.031,0.0335,0.0344,0.0373,0.0374,0.0396,0.0395,0.0394,0.0403,0.0426,0.0394,0.0394,0.0398,0.0443,0.0477,0.0483,0.0426,0.0427,0.0427,0.0427,0,0.0218,0.0226,0.0246,0.0251,0.0256,0.0281,0.0297,0.0317,0.0342,0.0375,0.0393,0.0421,0.041,0.0435,0.0442,0.0433,0.0438,0.0427,0.0416,0.0416,0.0448,0.049,0.043,0.0429,0.043,0.0431,0.0431,0,0.0196,0.0208,0.0213,0.025,0.0256,0.0265,0.0308,0.0327,0.038,0.041,0.0456,0.0476,0.0508,0.0491,0.0499,0.0499,0.048,0.0463,0.0463,0.0486,0.0457,0.0402,0.0436,0.0436,0.0436,0.0435,0.0435,0,0.0159,0.0182,0.0189,0.0198,0.0238,0.0256,0.0286,0.0338,0.0371,0.0448,0.049,0.0528,0.0563,0.0552,0.0543,0.0528,0.0542,0.0508,0.0513,0.0513,0.0463,0.0458,0.0505,0.0505,0.0505,0.0505,0.0505,0,0.0134,0.0136,0.0177,0.0178,0.0199,0.0244,0.0283,0.0328,0.0403,0.0451,0.0516,0.0559,0.0584,0.06,0.0567,0.057,0.0564,0.0535,0.0527,0.0477,0.0474,0.0465,0.046,0.0505,0.0505,0.0505,0.0505,0,0.0092,0.0115,0.0123,0.0166,0.018,0.02,0.0275,0.031,0.0399,0.0468,0.0503,0.0592,0.0637,0.0647,0.0637,0.0614,0.0596,0.0587,0.0547,0.0533,0.055,0.0547,0.0596,0.0597,0.0598,0.0599,0.06,0,0.0078,0.0074,0.0102,0.011,0.013,0.0172,0.0201,0.0292,0.0342,0.0475,0.0504,0.0598,0.0647,0.067,0.0671,0.0653,0.0633,0.0623,0.0581,0.0578,0.0565,0.056,0.0555,0.0602,0.0603,0.0603,0.0603,0,0.0045,0.0049,0.0057,0.0073,0.0095,0.0127,0.0188,0.0227,0.0345,0.0414,0.0526,0.0588,0.0651,0.0678,0.0698,0.066,0.0636,0.0635,0.0631,0.0591,0.0586,0.0571,0.0565,0.0607,0.0607,0.0606,0.0606,0,0.0018,0.0013,0.0024,0.0041,0.0063,0.0098,0.0133,0.0218,0.0286,0.0449,0.0469,0.0572,0.0641,0.068,0.0673,0.0689,0.0664,0.0627,0.0623,0.0618,0.0631,0.0629,0.0674,0,0,0,0,0,-0.0006,-0.0011,-0.0003,0.0017,0.0042,0.0065,0.0132,0.0179,0.0286,0.0361,0.0433,0.0497,0.0581,0.0618,0.0637,0.0656,0.064,0.0674,0.0588,0.0631,0.0626,0.0642,0,0,0,0,0,0,-0.0023,-0.0025,-0.0015,0.0002,0.0018,0.0052,0.0098,0.0168,0.0229,0.0339,0.0382,0.0469,0.0538,0.0562,0.0624,0.0636,0.0576,0.073,0.073,0.0634,0.0629,0.0625,0.064,0,0,0,0,0]},{"header":{"parameterUnit":"m.s-1","parameterCategory":2,"la1":30.2991,"la2":30.254,"lo1":-89.0895,"lo2":-89.0444,"dy":0.0017,"dx":0.0017,"nx":28,"ny":28,"refTime":"2024-06-13T03:00:00:Z","depth":"4","parameterNumber":3,"parameterNumberName":"V-component_of_CURRENTS"},"data":[0,0,0,0,0,0,0,0,0,0,0,0,0,0,0,0,0,0,0,0,0,0,0,0,0,0,0,0,0,0,0,0,0,0,0,0,0,0,0,0,0,0,0,0,0,0,0,0,0,0,0,0,0,0,0,0,0,0,-0.0043,-0.0043,0,-0.0124,-0.0125,-0.0126,-0.0172,-0.0172,-0.0172,-0.0172,-0.0242,-0.0244,-0.0245,0,0,0,0,0,0,0,0,0,0,0,0,0,0.0034,0.0033,-0.0042,-0.0044,-0.0045,-0.0124,-0.0125,-0.0126,-0.0172,-0.0172,-0.0172,-0.0172,-0.0242,-0.0244,-0.0246,0,0,0,0,0,0,0,0,0,0,0,0,0,-0.0018,0.0033,-0.0042,-0.0077,-0.0081,-0.0124,-0.0125,-0.0127,-0.0172,-0.0172,-0.0172,-0.0172,-0.0241,-0.0243,-0.0246,-0.0256,0,0,-0.0254,-0.0255,0,0,0,0,0,0,0,0,-0.0015,-0.0021,-0.0071,-0.0075,-0.008,-0.0139,-0.0124,-0.0169,-0.0172,-0.0137,-0.0172,-0.0173,-0.0207,-0.0212,-0.0226,-0.0259,-0.0262,-0.0254,-0.0255,-0.0256,-0.0257,0,0,0,0,0,0,0,-0.0011,-0.0018,-0.0074,-0.0072,-0.0077,-0.0103,-0.011,-0.0133,-0.0168,-0.014,-0.0143,-0.0153,-0.0209,-0.0224,-0.0228,-0.0263,-0.0254,-0.0256,-0.0258,-0.0259,-0.0356,-0.0357,0,0,0,0,0,0,-0.0,-0.0014,-0.0072,-0.0077,-0.0048,-0.0104,-0.0112,-0.0119,-0.0169,-0.0177,-0.0153,-0.0155,-0.0219,-0.0225,-0.0231,-0.0281,-0.0256,-0.0259,-0.026,-0.0355,-0.0356,-0.0358,0,0,0,0,0,0,0.0002,-0.0004,-0.0068,-0.0048,-0.0058,-0.0105,-0.0112,-0.012,-0.0153,-0.0179,-0.0187,-0.0179,-0.022,-0.0227,-0.0268,-0.0283,-0.026,-0.0262,-0.0354,-0.0355,-0.0357,-0.0359,0,0,0,0,0,0,0.0005,-0.0003,-0.0014,-0.0047,-0.0059,-0.0099,-0.0112,-0.0122,-0.0158,-0.0162,-0.0204,-0.021,-0.022,-0.0265,-0.0271,-0.0286,-0.0264,-0.0352,-0.0355,-0.0356,-0.0358,-0.0361,-0.0363,0,0,0,0,0,0.0008,-0.0013,-0.0014,-0.0022,-0.0069,-0.01,-0.0108,-0.0142,-0.0159,-0.0173,-0.0207,-0.0209,-0.0282,-0.0268,-0.0275,-0.0291,-0.0351,-0.0354,-0.0356,-0.0357,-0.036,-0.0363,0,0,0,0,0,0,-0.0006,-0.002,-0.0023,-0.0051,-0.0072,-0.0108,-0.0135,-0.0152,-0.019,-0.0201,-0.0224,-0.0232,-0.0275,-0.0285,-0.0269,-0.0326,-0.0317,-0.0321,-0.0315,-0.0318,-0.0321,-0.0323,-0.0266,0,0,0,0,0,-0.0007,-0.0018,-0.0035,-0.0063,-0.0072,-0.0104,-0.0126,-0.0142,-0.0176,-0.0195,-0.0223,-0.0256,-0.0288,-0.0305,-0.0333,-0.0363,-0.0372,-0.0379,-0.0381,-0.0384,-0.0391,-0.0434,-0.0441,-0.0365,-0.0365,-0.0365,0,0,-0.0023,-0.0033,-0.0042,-0.0065,-0.0088,-0.0096,-0.0119,-0.0154,-0.0166,-0.0196,-0.0235,-0.0269,-0.03,-0.0336,-0.0355,-0.0347,-0.0405,-0.0387,-0.0388,-0.0395,-0.0437,-0.0445,-0.0451,-0.0367,-0.0367,-0.0367,0,0,-0.0051,-0.0066,-0.0074,-0.0081,-0.0105,-0.0117,-0.0126,-0.016,-0.0184,-0.0218,-0.0248,-0.0294,-0.0335,-0.0363,-0.0381,-0.0418,-0.0421,-0.0426,-0.0438,-0.0479,-0.0486,-0.0492,-0.0485,-0.049,-0.0423,-0.0423,-0.0424,0,-0.0072,-0.0073,-0.0087,-0.0089,-0.0095,-0.0121,-0.0125,-0.0151,-0.0196,-0.0222,-0.023,-0.0322,-0.0347,-0.0399,-0.0414,-0.0423,-0.0434,-0.0419,-0.0482,-0.0488,-0.0494,-0.0487,-0.0493,-0.0424,-0.0424,-0.0424,-0.0424,0,-0.0086,-0.0087,-0.0099,-0.0095,-0.0106,-0.012,-0.0136,-0.0163,-0.0193,-0.0222,-0.0289,-0.0334,-0.039,-0.0405,-0.0422,-0.0481,-0.0469,-0.0482,-0.047,-0.0502,-0.0491,-0.0497,-0.0425,-0.0424,-0.0424,-0.0424,0,0,-0.0127,-0.0108,-0.0111,-0.0098,-0.0104,-0.0114,-0.0137,-0.0167,-0.0197,-0.0248,-0.0295,-0.0364,-0.0406,-0.0431,-0.0464,-0.0502,-0.0544,-0.0512,-0.0514,-0.0498,-0.0607,-0.0566,-0.0568,-0.0574,-0.0576,-0.0577,-0.0572,0,-0.0133,-0.012,-0.0113,-0.0105,-0.0096,-0.0111,-0.0128,-0.0161,-0.0204,-0.0256,-0.0323,-0.0381,-0.0408,-0.0446,-0.0492,-0.0541,-0.0566,-0.0543,-0.0586,-0.0586,-0.0541,-0.0577,-0.0583,-0.0576,-0.0578,-0.0579,-0.0579,0,-0.014,-0.0124,-0.011,-0.0091,-0.0093,-0.0097,-0.0129,-0.0148,-0.0221,-0.026,-0.0335,-0.0389,-0.0467,-0.0482,-0.0573,-0.056,-0.0587,-0.0613,-0.0614,-0.0583,-0.0559,-0.0547,-0.059,-0.0589,-0.0589,-0.0588,-0.0587,0,-0.0144,-0.0123,-0.0107,-0.0099,-0.0088,-0.0099,-0.011,-0.0163,-0.0185,-0.0274,-0.0305,-0.0406,-0.0455,-0.0524,-0.0583,-0.0589,-0.0663,-0.0672,-0.0649,-0.0644,-0.0678,-0.0673,-0.073,-0.073,-0.073,-0.073,-0.073,0,-0.0142,-0.013,-0.0109,-0.0097,-0.0094,-0.0096,-0.0118,-0.015,-0.0198,-0.0227,-0.0314,-0.0355,-0.0475,-0.053,-0.0583,-0.0628,-0.0661,-0.0658,-0.0654,-0.0675,-0.0669,-0.068,-0.0675,-0.073,-0.073,-0.073,-0.073,0,-0.015,-0.0132,-0.011,-0.0094,-0.0093,-0.0098,-0.0105,-0.0124,-0.0168,-0.0207,-0.0235,-0.0327,-0.0405,-0.0486,-0.0587,-0.0612,-0.0665,-0.0665,-0.0648,-0.0643,-0.0612,-0.0607,-0.0649,-0.0647,-0.0646,-0.0646,-0.0645,0,-0.015,-0.0138,-0.0111,-0.0101,-0.0096,-0.0096,-0.01,-0.0121,-0.0135,-0.0183,-0.0202,-0.0282,-0.0347,-0.0432,-0.0535,-0.0615,-0.0626,-0.0635,-0.0665,-0.0619,-0.0611,-0.0608,-0.0604,-0.0643,-0.0643,-0.0643,-0.0643,0,-0.0149,-0.0145,-0.0125,-0.0101,-0.0094,-0.008,-0.0084,-0.0081,-0.0104,-0.0137,-0.0163,-0.0228,-0.0303,-0.0408,-0.0465,-0.0529,-0.0631,-0.0625,-0.0628,-0.0656,-0.0613,-0.0606,-0.0603,-0.0639,-0.064,-0.064,-0.064,0,-0.0156,-0.0143,-0.0118,-0.0095,-0.0083,-0.0063,-0.0065,-0.0062,-0.0066,-0.0103,-0.0112,-0.02,-0.0266,-0.0361,-0.042,-0.0478,-0.0501,-0.0511,-0.0521,-0.0526,-0.0503,-0.0431,-0.0405,0,0,0,0,0,-0.0156,-0.013,-0.0109,-0.007,-0.0059,-0.0049,-0.005,-0.0052,-0.0063,-0.0064,-0.0079,-0.0143,-0.0241,-0.0303,-0.0351,-0.0421,-0.0525,-0.048,-0.0545,-0.062,-0.0624,-0.0617,0,0,0,0,0,0,-0.015,-0.013,-0.0103,-0.0056,-0.0028,-0.0009,-0.001,-0.0019,-0.0019,-0.004,-0.0095,-0.013,-0.0237,-0.0199,-0.0341,-0.0365,-0.0407,-0.0538,-0.0538,-0.0618,-0.0621,-0.0625,-0.0619,0,0,0,0,0]}]]